User: anonymous   Login
Location: Unspecified
(0.0000°N, 0.0000°E)
Time: 08:47:02
(UTC+00:00)
Language:

NOSS 0 (C) - Orbit

View from above orbital plane
View from above orbital plane
View from above satellite
View from above satellite

Ground track
Ground track

The orbit data is extracted from the following two-line orbital elements,

1 05680U 71110C   16251.85918875 0.00000040  00000-0  42235-4 0    02
2 05680  69.9820 166.4253 0007500 329.3916  30.6084 13.74471537    00
Epoch (UTC): 07 September 2016 20:37:13
Eccentricity: 0.0007500
inclination: 69.9820°
perigee height: 978 km
apogee height: 989 km
right ascension of ascending node: 166.4253°
argument of perigee: 329.3916°
revolutions per day: 13.74471537
mean anomaly at epoch: 30.6084°
orbit number at epoch: 0

The dashed part of the orbit path shows where the satellite is in the earth's shadow,  

DLR